Simultaneous Nadir Overpasses (SNOs) Predictions

Prediction of SNOs between GOES-16 and TERRA Satellite Orbit:

Table of predicted SNOs for the next 14.0 days since TLE Epoch: 7/4/2020
Index Date Time (GOES-16) GOES-16 Lat,Lon TERRA Lat,Lon Distance(km) Time Diff (sec)
1 07/04/2020 15:30:01 -0.01, -75.20 -0.03, -75.25 5.89 80
2 07/06/2020 15:20:29 -0.01, -75.21 -0.63, -72.29 331.58 80
3 07/07/2020 03:41:53 0.01, -75.19 -0.49, -77.48 260.35 80
4 07/09/2020 03:27:02 0.01, -75.21 0.17, -74.53 77.49 80
5 07/11/2020 03:14:50 0.01, -75.23 0.77, -71.56 416.13 80
6 07/11/2020 15:36:06 -0.02, -75.25 0.29, -76.73 167.79 80
7 07/13/2020 15:26:34 -0.02, -75.28 -0.32, -73.76 171.64 80
8 07/14/2020 03:47:57 0.02, -75.27 -0.79, -78.95 419.40 80
9 07/16/2020 03:35:46 0.02, -75.30 -0.12, -76.00 79.59 80
